[[{"header":{"parameterUnit":"m.s-1","parameterCategory":1,"la1":30.2991,"la2":30.254,"lo1":-89.0895,"lo2":-89.0444,"dy":0.0017,"dx":0.0017,"nx":28,"ny":28,"refTime":"2025-03-17T09:00:00:Z","depth":0,"parameterNumber":2,"parameterNumberName":"U-component_of_WINDS"},"data":[0,0,0,0,0,0,0,0,0,0,0,0,0,0,0,0,0,0,0,0,0,0,0,0,0,0,0,0,0,0,0,0,0,0,0,0,0,0,0,0,0,0,0,0,0,0,0,0,0,0,0,0,0,0,0,0,0,0,0.3807,0.3807,0,0.3749,0.3748,0.3747,0.3696,0.3696,0.3695,0.3695,0.3633,0.3632,0.3631,0,0,0,0,0,0,0,0,0,0,0,0,0,0.3873,0.3872,0.3808,0.3807,0.3806,0.3749,0.3748,0.3747,0.3696,0.3696,0.3695,0.3694,0.3633,0.3632,0.3631,0,0,0,0,0,0,0,0,0,0,0,0,0,0.3833,0.3872,0.3808,0.3774,0.377,0.3749,0.3748,0.3747,0.3697,0.3696,0.3695,0.3694,0.3634,0.3632,0.3631,0.3638,0,0,0.3625,0.3625,0,0,0,0,0,0,0,0,0.3835,0.383,0.378,0.3776,0.3772,0.3729,0.3748,0.371,0.3697,0.3725,0.3695,0.3694,0.3666,0.3661,0.3652,0.3635,0.3632,0.3625,0.3624,0.3624,0.3623,0,0,0,0,0,0,0,0.3838,0.3832,0.3784,0.3779,0.3774,0.3761,0.3754,0.3741,0.3701,0.3722,0.3718,0.3712,0.3663,0.3654,0.365,0.3631,0.3625,0.3624,0.3623,0.3622,0.3614,0.3615,0,0,0,0,0,0,0.3846,0.3835,0.3786,0.3782,0.3802,0.376,0.3753,0.3744,0.3701,0.3693,0.3713,0.371,0.3657,0.3652,0.3648,0.3652,0.3624,0.3622,0.3621,0.3613,0.3614,0.3615,0,0,0,0,0,0,0.3848,0.3842,0.3788,0.3808,0.38,0.376,0.375,0.3743,0.3733,0.3694,0.3686,0.3711,0.3656,0.365,0.364,0.3649,0.3621,0.362,0.3612,0.3614,0.3615,0.366,0,0,0,0,0,0,0.385,0.3843,0.3846,0.3808,0.3799,0.3783,0.3751,0.3742,0.3731,0.3726,0.369,0.3683,0.3655,0.3643,0.3638,0.3646,0.3619,0.3611,0.3613,0.3614,0.3658,0.3663,0.3667,0,0,0,0,0,0.3852,0.3861,0.3847,0.3841,0.3802,0.3783,0.3778,0.3747,0.3732,0.3734,0.3708,0.3684,0.3649,0.3642,0.3637,0.3644,0.3611,0.3612,0.3614,0.3656,0.3662,0.3667,0,0,0,0,0,0,0.3901,0.3856,0.3839,0.3836,0.3814,0.3775,0.3777,0.3754,0.3736,0.3732,0.3693,0.3685,0.3679,0.3661,0.3654,0.3647,0.3626,0.3627,0.366,0.3665,0.367,0.3674,0.3617,0,0,0,0,0,0.3912,0.3901,0.3862,0.3863,0.3853,0.3817,0.3808,0.3785,0.376,0.3751,0.3724,0.37,0.3683,0.3674,0.3656,0.3655,0.3645,0.3657,0.3662,0.3666,0.3667,0.3663,0.3667,0.3621,0.3621,0.3621,0,0,0.3934,0.3907,0.3903,0.3872,0.3853,0.3841,0.3809,0.3799,0.379,0.3749,0.3737,0.3717,0.3688,0.3682,0.3678,0.3666,0.3677,0.3668,0.3672,0.367,0.3665,0.3669,0.3673,0.3622,0.3622,0.3622,0,0,0.3967,0.3947,0.3945,0.3925,0.3896,0.3871,0.3871,0.3835,0.382,0.3808,0.3776,0.3764,0.3737,0.3717,0.3703,0.3727,0.3703,0.3722,0.3747,0.3743,0.3747,0.375,0.3757,0.376,0.3724,0.3724,0.3724,0,0.3997,0.398,0.3947,0.3938,0.3924,0.3887,0.3884,0.3866,0.3833,0.3824,0.3811,0.3775,0.3753,0.374,0.3746,0.3737,0.3734,0.3726,0.3749,0.3752,0.3754,0.376,0.3763,0.3726,0.3726,0.3726,0.3725,0,0.4018,0.4006,0.4008,0.3976,0.3963,0.3957,0.3922,0.3912,0.3891,0.3867,0.3855,0.3826,0.3802,0.3797,0.3777,0.3782,0.3775,0.3757,0.3734,0.3761,0.3766,0.3769,0.373,0.3729,0.3728,0.3727,0,0,0.408,0.403,0.4031,0.4015,0.3979,0.3969,0.396,0.3937,0.3928,0.3906,0.3897,0.3874,0.3856,0.3841,0.3817,0.3814,0.3832,0.3795,0.3794,0.3802,0.3834,0.3848,0.3851,0.3817,0.3817,0.3817,0.3836,0,0.4107,0.409,0.406,0.4053,0.404,0.4004,0.3996,0.3973,0.395,0.3936,0.3911,0.3894,0.3873,0.3863,0.3858,0.3831,0.3838,0.383,0.3806,0.3806,0.3814,0.3854,0.3868,0.3887,0.3838,0.3838,0.3839,0,0.4135,0.4115,0.4107,0.407,0.4064,0.4058,0.4032,0.402,0.3991,0.3975,0.3957,0.3931,0.3918,0.3899,0.388,0.3875,0.3864,0.3849,0.3849,0.3845,0.3823,0.3849,0.3893,0.3895,0.3842,0.3841,0.3841,0,0.418,0.4151,0.4141,0.4129,0.4087,0.4083,0.4065,0.4036,0.4023,0.4001,0.3991,0.3968,0.3955,0.3937,0.3904,0.3893,0.3889,0.3867,0.3873,0.3874,0.3873,0.3874,0.3915,0.3868,0.3868,0.3868,0.3868,0,0.4212,0.4208,0.4161,0.4155,0.4149,0.4113,0.4108,0.4086,0.406,0.4049,0.4016,0.4005,0.3964,0.3948,0.3922,0.391,0.3904,0.389,0.3883,0.3892,0.3894,0.3883,0.3881,0.3869,0.3869,0.3869,0.3869,0,0.426,0.4229,0.4216,0.4177,0.4167,0.4164,0.4129,0.4121,0.4097,0.4083,0.4077,0.4038,0.4018,0.3984,0.3953,0.3936,0.3928,0.3917,0.3937,0.3933,0.3941,0.394,0.3976,0.3978,0.3932,0.3932,0.3933,0,0.4282,0.4278,0.4238,0.4228,0.4212,0.4196,0.4183,0.4147,0.4134,0.4101,0.4097,0.4074,0.4053,0.4022,0.399,0.3967,0.3954,0.3968,0.395,0.3959,0.3952,0.3952,0.3951,0.3972,0.3972,0.3973,0.3974,0,0.4324,0.4308,0.429,0.4267,0.4252,0.4232,0.4209,0.4203,0.4162,0.4149,0.4128,0.4112,0.4081,0.4058,0.4029,0.4009,0.3984,0.3979,0.3979,0.3988,0.4,0.3992,0.3947,0.3979,0.3978,0.3978,0.3977,0.3977,0.4358,0.4353,0.4323,0.4304,0.4284,0.4264,0.4254,0.4228,0.421,0.4182,0.4162,0.4142,0.4112,0.4071,0.4052,0.4035,0.4023,0.4024,0.4024,0.4024,0.4027,0.4004,0.4029,0.4029,0.4029,0.4029,0.4029,0,0.4397,0.4376,0.4359,0.4329,0.4314,0.4292,0.4266,0.4254,0.4237,0.4212,0.4192,0.4167,0.4144,0.4111,0.4085,0.4077,0.4065,0.4072,0.4071,0.4067,0.4039,0.4041,0.4082,0.4082,0.4082,0.4082,0.4082,0.4082,0.4415,0.4404,0.4384,0.4362,0.434,0.4321,0.4308,0.4288,0.4268,0.4241,0.4222,0.4201,0.4171,0.4143,0.412,0.4111,0.4102,0.4112,0.4099,0.4074,0.4069,0.4064,0.4066,0.4111,0.4111,0.4127,0.4127,0.4128]},{"header":{"parameterUnit":"m.s-1","parameterCategory":1,"la1":30.2991,"la2":30.254,"lo1":-89.0895,"lo2":-89.0444,"dy":0.0017,"dx":0.0017,"nx":28,"ny":28,"refTime":"2025-03-17T09:00:00:Z","depth":0,"parameterNumber":3,"parameterNumberName":"V-component_of_WINDS"},"data":[0,0,0,0,0,0,0,0,0,0,0,0,0,0,0,0,0,0,0,0,0,0,0,0,0,0,0,0,0,0,0,0,0,0,0,0,0,0,0,0,0,0,0,0,0,0,0,0,0,0,0,0,0,0,0,0,0,0,7.7518,7.7519,0,7.7593,7.7593,7.7594,7.7529,7.7527,7.7524,7.7521,7.7591,7.7595,7.76,0,0,0,0,0,0,0,0,0,0,0,0,0,7.7312,7.7316,7.7518,7.7519,7.752,7.7593,7.7594,7.7595,7.753,7.7526,7.7523,7.752,7.759,7.7595,7.76,0,0,0,0,0,0,0,0,0,0,0,0,0,7.7395,7.7318,7.7518,7.7497,7.7495,7.7592,7.7594,7.7595,7.753,7.7526,7.7522,7.7519,7.7588,7.7594,7.7601,7.7721,0,0,7.7621,7.7623,0,0,0,0,0,0,0,0,7.7391,7.7403,7.7499,7.7498,7.7497,7.7548,7.7546,7.7637,7.7531,7.7517,7.7521,7.7517,7.758,7.7586,7.7609,7.7724,7.7727,7.7621,7.7625,7.7628,7.763,0,0,0,0,0,0,0,7.7385,7.7399,7.7547,7.75,7.7499,7.7481,7.7488,7.7563,7.7569,7.7518,7.7513,7.7523,7.7578,7.7603,7.761,7.7728,7.7621,7.7627,7.7631,7.7633,7.7942,7.7946,0,0,0,0,0,0,7.7383,7.7395,7.7545,7.755,7.7433,7.7488,7.7496,7.7535,7.7569,7.757,7.7527,7.752,7.7594,7.7603,7.7612,7.7753,7.7628,7.7634,7.7638,7.7938,7.7943,7.7948,0,0,0,0,0,0,7.7378,7.7397,7.7542,7.7471,7.7488,7.7496,7.754,7.7539,7.7564,7.7575,7.7575,7.7551,7.7591,7.7603,7.7694,7.7755,7.7637,7.7643,7.7933,7.794,7.7946,7.8037,0,0,0,0,0,0,7.7373,7.7396,7.7443,7.7473,7.7492,7.7625,7.7544,7.7543,7.7576,7.7568,7.7598,7.7599,7.7589,7.7685,7.7701,7.7762,7.7648,7.7927,7.7936,7.7943,7.8029,7.8046,7.8061,0,0,0,0,0,7.7366,7.7465,7.7446,7.7464,7.7552,7.7629,7.764,7.7627,7.7581,7.7627,7.7634,7.7598,7.7746,7.7695,7.7712,7.7776,7.7924,7.7933,7.7943,7.8021,7.8042,7.806,0,0,0,0,0,0,7.744,7.7468,7.7448,7.756,7.7593,7.7618,7.7676,7.765,7.7695,7.7685,7.7666,7.7673,7.7769,7.7781,7.7724,7.7892,7.7827,7.784,7.7881,7.7901,7.7916,7.7911,7.7653,0,0,0,0,0,7.747,7.7532,7.7552,7.7649,7.7667,7.7669,7.7702,7.769,7.7722,7.7734,7.7748,7.7779,7.7832,7.7867,7.7917,7.803,7.8034,7.8082,7.8098,7.8112,7.8123,7.8182,7.8203,7.798,7.798,7.7979,0,0,7.7531,7.7555,7.7595,7.7665,7.7689,7.7751,7.7681,7.775,7.7795,7.7744,7.7831,7.7842,7.7875,7.7978,7.8023,7.7991,7.8186,7.8124,7.8134,7.8139,7.8194,7.8215,7.8234,7.7986,7.7985,7.7984,0,0,7.7675,7.77,7.7783,7.7808,7.7846,7.7846,7.7866,7.7895,7.7901,7.7989,7.7951,7.8003,7.8096,7.812,7.8144,7.8296,7.8264,7.8313,7.8396,7.8453,7.8471,7.8486,7.8538,7.8558,7.8324,7.8325,7.8325,0,7.7746,7.7841,7.7828,7.79,7.7931,7.7889,7.7971,7.7996,7.8047,7.8068,7.8031,7.8146,7.8165,7.8271,7.8308,7.833,7.835,7.8309,7.847,7.8485,7.8499,7.8549,7.8569,7.833,7.833,7.8329,7.8329,0,7.7925,7.7991,7.8053,7.8105,7.8143,7.8219,7.8216,7.8255,7.8239,7.8243,7.833,7.8352,7.8405,7.8429,7.8414,7.8533,7.8511,7.8473,7.8407,7.8526,7.8572,7.8591,7.8338,7.8336,7.8335,7.8333,0,0,7.8117,7.8162,7.8184,7.8207,7.8245,7.8294,7.8368,7.8421,7.8454,7.849,7.8549,7.8628,7.8592,7.862,7.8607,7.8658,7.8774,7.8612,7.8613,7.864,7.8904,7.8932,7.8954,7.8753,7.8757,7.876,7.8901,0,7.8261,7.8392,7.8382,7.8503,7.8562,7.8524,7.8587,7.8616,7.8621,7.8669,7.8674,7.8729,7.8679,7.8695,7.8744,7.875,7.8826,7.8739,7.8805,7.8808,7.8797,7.8979,7.9009,7.9141,7.8919,7.8922,7.8924,0,7.8447,7.8491,7.8619,7.8647,7.8671,7.8729,7.8776,7.8824,7.8855,7.8854,7.8886,7.8863,7.8934,7.8868,7.8964,7.8905,7.8931,7.8938,7.8943,7.8947,7.8872,7.8986,7.9183,7.9202,7.8953,7.895,7.8948,0,7.8572,7.8664,7.8752,7.8772,7.8807,7.8848,7.8864,7.8892,7.8924,7.8964,7.8984,7.9031,7.9057,7.9093,7.9083,7.9036,7.918,7.9113,7.918,7.918,7.9211,7.9209,7.9413,7.9231,7.9231,7.923,7.923,0,7.8733,7.8812,7.8808,7.8862,7.8949,7.8936,7.9021,7.9032,7.9056,7.911,7.9078,7.9129,7.9113,7.9162,7.9155,7.9234,7.9246,7.9246,7.9243,7.9248,7.9248,7.9264,7.9254,7.9236,7.9234,7.9233,7.9233,0,7.8887,7.8888,7.8981,7.9007,7.9015,7.9078,7.9099,7.9148,7.9151,7.9218,7.9233,7.9236,7.9292,7.9286,7.9348,7.9343,7.9441,7.9427,7.9431,7.9428,7.9494,7.9487,7.9714,7.9742,7.9544,7.9546,7.9547,0,7.8989,7.905,7.9082,7.9117,7.9136,7.9192,7.9225,7.9213,7.9248,7.9287,7.9331,7.9384,7.9426,7.9516,7.9522,7.9569,7.9555,7.9632,7.9562,7.9565,7.9554,7.955,7.9555,7.9645,7.9647,7.9649,7.965,0,7.9169,7.9167,7.9216,7.9266,7.9307,7.9345,7.9379,7.9408,7.94,7.944,7.9497,7.953,7.9594,7.9646,7.969,7.9703,7.9675,7.9673,7.969,7.9695,7.9694,7.9694,7.9467,7.9667,7.9665,7.9664,7.9663,7.9663,7.9299,7.9351,7.9381,7.9437,7.9462,7.9495,7.9542,7.9551,7.9599,7.9652,7.9641,7.9705,7.9732,7.9788,7.9806,7.9855,7.9826,7.9852,7.9859,7.9865,7.9872,7.9688,7.9863,7.9862,7.9862,7.9861,7.9861,0,7.9476,7.9494,7.9546,7.9596,7.9639,7.9611,7.9647,7.9684,7.9742,7.977,7.9812,7.9877,7.9927,7.9938,7.9985,8.0021,8.0009,8.0034,8.003,8.0033,7.9895,7.9874,8.0043,8.0043,8.0043,8.0043,8.0043,8.0043,7.9574,7.9658,7.9659,7.9755,7.9771,7.9835,7.9858,7.9887,7.9909,7.9984,8.0026,8.0033,8.0054,8.0102,8.0146,8.0147,8.0165,8.0195,8.0191,8.0062,8.0043,8.0026,8.0006,8.02,8.02,8.0325,8.0326,8.0327]}]]